Location: Blazny
(46.0612°N, 84.4033°W)
Time: 08:48:48
(UTC-04:00)

ARIANE 6 FM1 Upper Stage - Pass Details

Date: 24 September 2024
Orbit: 564 x 594 km, 62.0° (Epoch: 03 October)

Event Time Altitude Azimuth Distance (km) Brightness Sun altitude
Rises 20:56:48 0° 232° (SW) 2,776 6.8 -15.7°
Reaches altitude 10° 20:59:04 10° 237° (WSW) 1,886 5.9 -16.1°
Maximum altitude 21:03:15 54° 316° (NW) 711 3.5 -16.8°
Drops below altitude 10° 21:07:30 10° 34° (NE) 1,917 5.2 -17.5°
Enters shadow 21:08:52 - 38° (NE) 2,452 5.7 -17.7°
